Adrian, MI

6:27 AM EDT on August 17, 2017 (GMT -0400)
Lenawee County

Weather History for KADG - April, 2014

Change the Weather History Date:

Monday, April 7, 2014

  Actual Average Record
Temperature  
Mean Temperature 42 °F -  
Max Temperature 53 °F 55 °F 82 °F (1991)
Min Temperature 33 °F 31 °F 8 °F (1982)
Degree Days  
Heating Degree Days 22    
Moisture  
Dew Point 31 °F    
Average Humidity 69    
Maximum Humidity 92    
Minimum Humidity 41    
Precipitation  
Precipitation 0.29 in - - ()
Sea Level Pressure  
Sea Level Pressure 29.76 in    
Wind  
Wind Speed 9 mph (ENE)    
Max Wind Speed 15 mph    
Max Gust Speed -    
Visibility 8 miles    
Events Rain    
Averages and records for this station are not official NWS values.
T = Trace of Precipitation, MM = Missing Value Source: NWS Daily Summary

Daily Weather History Graph

Daily Weather History Graph

Search for Another Location

Airport or City:

Trip Planner

Search our weather history database for the weather conditions in past years. The results will help you decide how hot, cold, wet, or windy it might be!

Date:

Astronomy

Apr. 07, 2014 Rise Set
Actual Time 7:09 AM EDT 8:08 PM EDT
Civil Twilight 6:40 AM EDT 8:36 PM EDT
Nautical Twilight 6:06 AM EDT 9:10 PM EDT
Astronomical Twilight 5:31 AM EDT 9:46 PM EDT
Moon 1:01 PM EDT (4/7) 2:47 AM EDT (4/7)
Length of Visible Light 13h 56m
Length of Day
12h 59m
First Quarter, 53% of the Moon is Illuminated
Apr 7
First Quarter
Apr 15
Full
Apr 22
Last Quarter
Apr 29
New
May 6
First Quarter

Hourly Weather History & Observations

Time (EDT) Temp. Windchill Dew Point Humidity Pressure Visibility Wind Dir Wind Speed Gust Speed Precip Events Conditions
12:53 AM 36.0 °F 30.3 °F 27.0 °F 70% 30.04 in 10.0 mi East 6.9 mph - N/A   Clear
1:53 AM 35.1 °F 30.1 °F 26.1 °F 70% 30.02 in 10.0 mi ENE 5.8 mph - N/A   Clear
2:53 AM 34.0 °F 28.0 °F 25.0 °F 70% 30.00 in 10.0 mi ENE 6.9 mph - N/A   Clear
3:53 AM 33.1 °F 27.7 °F 24.1 °F 70% 29.95 in 10.0 mi NE 5.8 mph - N/A   Clear
4:53 AM 33.1 °F 26.9 °F 23.0 °F 66% 29.94 in 10.0 mi ENE 6.9 mph - N/A   Clear
5:53 AM 33.1 °F 26.9 °F 23.0 °F 66% 29.92 in 10.0 mi East 6.9 mph - N/A   Clear
6:53 AM 35.1 °F 28.6 °F 24.1 °F 64% 29.89 in 10.0 mi ENE 8.1 mph - N/A   Clear
7:53 AM 36.0 °F 30.3 °F 24.1 °F 62% 29.89 in 10.0 mi East 6.9 mph - N/A   Clear
8:53 AM 37.9 °F 32.1 °F 25.0 °F 60% 29.88 in 10.0 mi ENE 8.1 mph - N/A   Clear
9:53 AM 39.9 °F 35.8 °F 26.1 °F 58% 29.88 in 10.0 mi NE 5.8 mph - N/A   Scattered Clouds
10:53 AM 45.0 °F 39.3 °F 26.1 °F 48% 29.82 in 10.0 mi NE 11.5 mph - N/A   Mostly Cloudy
11:53 AM 50.0 °F - 27.0 °F 41% 29.77 in 10.0 mi East 10.4 mph - N/A   Overcast
12:53 PM 51.1 °F - 30.9 °F 46% 29.75 in 10.0 mi East 12.7 mph - N/A   Mostly Cloudy
1:53 PM 52.0 °F - 30.9 °F 45% 29.68 in 10.0 mi East 15.0 mph - N/A   Overcast
2:53 PM 52.0 °F - 30.0 °F 43% 29.63 in 10.0 mi East 12.7 mph - N/A   Overcast
4:53 PM 44.1 °F 40.1 °F 39.0 °F 82% 29.65 in 4.0 mi SSE 6.9 mph - 0.01 in Rain Light Rain
5:53 PM 43.0 °F 36.0 °F 39.9 °F 89% 29.59 in 5.0 mi NE 13.8 mph - 0.06 in Rain Light Rain
6:53 PM 43.0 °F 36.4 °F 39.9 °F 89% 29.58 in 4.0 mi NNE 12.7 mph - 0.02 in Rain Light Rain
7:53 PM 42.1 °F 34.9 °F 39.0 °F 89% 29.57 in 4.0 mi NNE 13.8 mph - 0.07 in Rain Rain
8:53 PM 42.1 °F 34.5 °F 39.0 °F 89% 29.55 in 5.0 mi NNE 15.0 mph - 0.06 in Rain Light Rain
9:53 PM 42.1 °F 35.7 °F 39.0 °F 89% 29.55 in 6.0 mi North 11.5 mph - 0.02 in Rain Light Rain
10:53 PM 42.1 °F 34.9 °F 39.9 °F 92% 29.51 in 4.0 mi North 13.8 mph - 0.04 in Rain Light Rain
11:53 PM 42.1 °F 36.1 °F 39.9 °F 92% 29.49 in 7.0 mi North 10.4 mph - 0.01 in Rain Light Rain